�������l�o���
Date,Time,MP-1(��Sv/h),MP-2(��Sv/h),MP-3(��Sv/h),MP-4(��Sv/h),MP-5(��Sv/h),MP-6(��Sv/h),MP-7(��Sv/h),MP-8(��Sv/h),����,����(m/s),���J
2021/08/18,00:00,0.532,0.792,0.517,0.969,0.660,0.339,0.584,0.547,��쓌,8.0,�L
2021/08/18,00:10,0.531,0.791,0.515,0.964,0.658,0.339,0.584,0.542,��쓌,6.1,�L
2021/08/18,00:20,0.541,0.799,0.514,0.969,0.665,0.343,0.586,0.549,��,10.0,�L
2021/08/18,00:30,0.546,0.806,0.519,0.976,0.668,0.345,0.590,0.555,��,7.5,�L
2021/08/18,00:40,0.550,0.811,0.521,0.980,0.668,0.348,0.592,0.557,��,10.2,�L
2021/08/18,00:50,0.554,0.813,0.522,0.982,0.672,0.348,0.594,0.559,��,10.7,�L
2021/08/18,01:00,0.553,0.814,0.521,0.986,0.670,0.348,0.594,0.560,��,10.5,�L
2021/08/18,01:10,0.555,0.814,0.524,0.986,0.674,0.348,0.595,0.562,��,11.9,�L
2021/08/18,01:20,0.557,0.818,0.524,0.992,0.675,0.351,0.596,0.560,��,12.0,�L
2021/08/18,01:30,0.557,0.819,0.526,0.993,0.677,0.349,0.597,0.561,��,9.5,��
2021/08/18,01:40,0.559,0.824,0.527,0.996,0.678,0.350,0.597,0.562,��,10.2,�L
2021/08/18,01:50,0.558,0.823,0.526,0.997,0.679,0.352,0.599,0.562,��쓌,11.0,��
2021/08/18,02:00,0.559,0.823,0.528,0.998,0.680,0.353,0.598,0.564,��,12.0,��
2021/08/18,02:10,0.560,0.824,0.530,1.000,0.679,0.353,0.601,0.563,��,10.5,��
2021/08/18,02:20,0.560,0.827,0.531,1.001,0.680,0.352,0.601,0.565,��,10.8,��
2021/08/18,02:30,0.561,0.828,0.530,1.003,0.682,0.351,0.601,0.566,��,10.5,��
2021/08/18,02:40,0.560,0.830,0.532,1.004,0.683,0.350,0.601,0.566,��,11.0,��
2021/08/18,02:50,0.561,0.829,0.531,1.006,0.685,0.352,0.602,0.566,��,10.5,��
2021/08/18,03:00,0.560,0.829,0.530,1.006,0.685,0.352,0.601,0.566,��,11.3,��
2021/08/18,03:10,0.562,0.829,0.531,1.008,0.685,0.352,0.601,0.566,��,11.4,�L
2021/08/18,03:20,0.563,0.830,0.532,1.008,0.688,0.352,0.602,0.565,��,11.8,�L
2021/08/18,03:30,0.563,0.832,0.532,1.009,0.686,0.353,0.602,0.567,-,CALM,��
2021/08/18,03:40,0.562,0.832,0.532,1.012,0.687,0.351,0.603,0.567,��,11.1,��
2021/08/18,03:50,0.563,0.832,0.534,1.012,0.689,0.352,0.602,0.567,��,11.6,�L
2021/08/18,04:00,0.564,0.831,0.533,1.013,0.688,0.353,0.603,0.567,��,11.6,�L
2021/08/18,04:10,0.565,0.832,0.535,1.013,0.689,0.352,0.604,0.569,��,10.2,��
2021/08/18,04:20,0.564,0.833,0.534,1.014,0.690,0.352,0.603,0.569,��,9.6,��
2021/08/18,04:30,0.563,0.833,0.534,1.014,0.690,0.354,0.605,0.569,��쐼,12.4,��
2021/08/18,04:40,0.564,0.836,0.534,1.014,0.691,0.352,0.605,0.570,��,11.6,��
2021/08/18,04:50,0.563,0.834,0.533,1.016,0.692,0.352,0.605,0.569,��,8.8,��
2021/08/18,05:00,0.565,0.834,0.535,1.017,0.692,0.353,0.606,0.570,��,9.0,��
2021/08/18,05:10,0.564,0.836,0.535,1.016,0.694,0.353,0.604,0.570,��,7.8,��
2021/08/18,05:20,0.565,0.835,0.536,1.019,0.691,0.353,0.605,0.570,-,CALM,��
2021/08/18,05:30,0.566,0.837,0.536,1.019,0.693,0.353,0.607,0.569,��,9.4,��
2021/08/18,05:40,0.565,0.836,0.536,1.019,0.694,0.354,0.607,0.569,��쐼,8.9,��
2021/08/18,05:50,0.567,0.836,0.536,1.020,0.695,0.353,0.605,0.571,��,8.8,��
2021/08/18,06:00,0.565,0.838,0.538,1.018,0.696,0.354,0.607,0.571,-,CALM,��
2021/08/18,06:10,0.567,0.836,0.538,1.020,0.696,0.354,0.607,0.571,��,8.5,��
2021/08/18,06:20,0.567,0.837,0.537,1.021,0.696,0.352,0.607,0.569,��,8.3,��
2021/08/18,06:30,0.569,0.837,0.535,1.021,0.699,0.354,0.605,0.571,-,CALM,��
2021/08/18,06:40,0.570,0.839,0.538,1.022,0.698,0.354,0.607,0.569,��,8.1,��
2021/08/18,06:50,0.569,0.840,0.537,1.022,0.696,0.355,0.606,0.571,��쓌,9.4,��
2021/08/18,07:00,0.568,0.839,0.537,1.022,0.697,0.354,0.606,0.571,��,8.4,��
2021/08/18,07:10,0.567,0.839,0.537,1.022,0.698,0.355,0.605,0.571,��,9.1,��
2021/08/18,07:20,0.568,0.840,0.536,1.023,0.698,0.355,0.606,0.571,��,9.1,��
2021/08/18,07:30,0.571,0.842,0.538,1.025,0.699,0.356,0.607,0.571,��,8.3,��
2021/08/18,07:40,0.571,0.841,0.538,1.024,0.702,0.356,0.609,0.571,��쓌,9.7,��
2021/08/18,07:50,0.570,0.842,0.539,1.025,0.702,0.355,0.607,0.570,��,7.5,��
2021/08/18,08:00,0.572,0.841,0.537,1.027,0.701,0.357,0.609,0.570,��,6.9,��
2021/08/18,08:10,0.571,0.844,0.540,1.024,0.702,0.357,0.609,0.571,��,9.2,��
2021/08/18,08:20,0.571,0.843,0.538,1.027,0.703,0.356,0.606,0.572,��,9.9,��
2021/08/18,08:30,0.568,0.844,0.542,1.027,0.703,0.361,0.607,0.570,��,9.5,��
2021/08/18,08:40,0.573,0.845,0.538,1.024,0.704,0.356,0.608,0.571,��,10.6,��
2021/08/18,08:50,0.573,0.843,0.539,1.028,0.705,0.357,0.610,0.572,��,10.5,��
2021/08/18,09:00,0.572,0.843,0.538,1.027,0.705,0.356,0.610,0.573,��,10.2,��
2021/08/18,09:10,0.573,0.844,0.539,1.029,0.704,0.355,0.610,0.572,��,8.5,��
2021/08/18,09:20,0.572,0.843,0.539,1.028,0.706,0.356,0.612,0.573,��,8.4,��
2021/08/18,09:30,0.574,0.846,0.540,1.028,0.705,0.356,0.611,0.572,��,10.6,��
2021/08/18,09:40,0.574,0.846,0.541,1.029,0.707,0.356,0.610,0.571,��,8.2,��
2021/08/18,09:50,0.573,0.844,0.540,1.029,0.709,0.357,0.611,0.572,��,8.6,��
2021/08/18,10:00,0.574,0.846,0.542,1.031,0.706,0.357,0.611,0.573,��,7.1,��
2021/08/18,10:10,0.573,0.845,0.541,1.030,0.707,0.357,0.611,0.573,��,6.2,��
2021/08/18,10:20,0.574,0.845,0.542,1.032,0.709,0.360,0.612,0.573,��쐼,6.6,��
2021/08/18,10:30,0.575,0.848,0.543,1.030,0.711,0.358,0.612,0.574,��쐼,6.9,��
2021/08/18,10:40,0.575,0.848,0.542,1.031,0.708,0.358,0.612,0.574,��,7.3,��
2021/08/18,10:50,0.574,0.847,0.543,1.033,0.709,0.356,0.613,0.575,��쓌,6.7,��
2021/08/18,11:00,0.575,0.848,0.543,1.031,0.711,0.358,0.612,0.574,��,6.8,��
2021/08/18,11:10,0.576,0.850,0.545,1.031,0.710,0.359,0.613,0.574,��,6.5,��
2021/08/18,11:20,0.574,0.849,0.543,1.031,0.712,0.358,0.614,0.575,��,6.7,��
2021/08/18,11:30,0.575,0.851,0.544,1.032,0.711,0.358,0.612,0.573,��,7.2,��
2021/08/18,11:40,0.576,0.849,0.544,1.032,0.712,0.357,0.611,0.573,��,6.7,��
2021/08/18,11:50,0.575,0.853,0.545,1.036,0.712,0.357,0.612,0.575,��,7.5,��
2021/08/18,12:00,0.577,0.851,0.545,1.034,0.713,0.358,0.613,0.574,��,9.2,��
2021/08/18,12:10,0.575,0.854,0.545,1.033,0.714,0.358,0.613,0.576,��쓌,8.7,��
2021/08/18,12:20,0.577,0.853,0.545,1.033,0.713,0.359,0.614,0.575,��,8.8,��
2021/08/18,12:30,0.575,0.851,0.545,1.034,0.714,0.359,0.615,0.577,��,8.1,��
2021/08/18,12:40,0.575,0.853,0.545,1.035,0.713,0.357,0.613,0.575,��,7.7,��
2021/08/18,12:50,0.576,0.852,0.545,1.035,0.713,0.358,0.613,0.577,��,6.7,��
2021/08/18,13:00,0.577,0.854,0.543,1.033,0.715,0.358,0.614,0.575,��,6.3,��
2021/08/18,13:10,0.576,0.852,0.544,1.036,0.715,0.358,0.614,0.576,��,7.5,��
2021/08/18,13:20,0.575,0.853,0.544,1.038,0.717,0.357,0.614,0.576,��,7.0,�L
2021/08/18,13:30,0.575,0.851,0.544,1.038,0.713,0.358,0.614,0.575,��,8.5,�L
2021/08/18,13:40,0.575,0.853,0.543,1.036,0.716,0.358,0.613,0.576,��,8.1,�L
2021/08/18,13:50,0.575,0.853,0.544,1.033,0.717,0.360,0.612,0.575,��,7.6,��
2021/08/18,14:00,0.579,0.852,0.545,1.036,0.717,0.358,0.614,0.575,��쐼,8.2,��
2021/08/18,14:10,0.577,0.853,0.546,1.033,0.718,0.359,0.614,0.575,��,9.7,��
2021/08/18,14:20,0.581,0.856,0.544,1.036,0.720,0.358,0.613,0.574,��,10.2,��
2021/08/18,14:30,0.579,0.855,0.548,1.037,0.718,0.359,0.614,0.575,��,9.7,��
2021/08/18,14:40,0.578,0.856,0.546,1.037,0.718,0.359,0.615,0.576,��,9.5,��
2021/08/18,14:50,0.580,0.856,0.548,1.036,0.719,0.360,0.615,0.575,��,9.8,��
2021/08/18,15:00,0.581,0.856,0.547,1.038,0.719,0.357,0.615,0.576,��,9.2,��
2021/08/18,15:10,0.580,0.858,0.546,1.036,0.719,0.359,0.614,0.576,��,8.8,��
2021/08/18,15:20,0.580,0.856,0.547,1.038,0.720,0.361,0.615,0.575,��,6.8,��
2021/08/18,15:30,0.580,0.859,0.548,1.038,0.720,0.360,0.617,0.577,��,7.0,��
2021/08/18,15:40,0.579,0.858,0.547,1.037,0.722,0.359,0.617,0.575,��,6.2,��
2021/08/18,15:50,0.579,0.857,0.546,1.038,0.719,0.358,0.617,0.577,��,7.0,��
2021/08/18,16:00,0.579,0.858,0.547,1.039,0.722,0.360,0.616,0.576,��,6.2,��
2021/08/18,16:10,0.580,0.858,0.547,1.040,0.722,0.360,0.617,0.578,��,6.8,��
2021/08/18,16:20,0.581,0.857,0.546,1.040,0.720,0.360,0.615,0.578,��,7.4,��
2021/08/18,16:30,0.580,0.857,0.546,1.039,0.722,0.359,0.616,0.577,��,7.0,��
2021/08/18,16:40,0.581,0.861,0.547,1.040,0.721,0.359,0.617,0.578,��,7.1,��
2021/08/18,16:50,0.580,0.860,0.546,1.042,0.722,0.360,0.616,0.578,��,6.0,��
2021/08/18,17:00,0.581,0.859,0.549,1.041,0.723,0.361,0.617,0.578,��,5.0,��
2021/08/18,17:10,0.581,0.857,0.548,1.042,0.722,0.360,0.617,0.576,��쓌,4.4,��
2021/08/18,17:20,0.581,0.859,0.548,1.040,0.723,0.360,0.618,0.577,��,3.2,��
2021/08/18,17:30,0.582,0.860,0.547,1.041,0.723,0.359,0.617,0.576,��,4.1,��
2021/08/18,17:40,0.582,0.860,0.548,1.043,0.722,0.360,0.616,0.577,��,4.5,��
2021/08/18,17:50,0.580,0.859,0.547,1.040,0.722,0.360,0.617,0.577,��,4.2,��
2021/08/18,18:00,0.582,0.858,0.548,1.039,0.723,0.362,0.617,0.577,��,4.0,��
2021/08/18,18:10,0.579,0.859,0.547,1.038,0.725,0.361,0.616,0.578,��,4.2,��
2021/08/18,18:20,0.581,0.859,0.547,1.041,0.723,0.361,0.617,0.578,��,4.3,��
2021/08/18,18:30,0.582,0.860,0.548,1.040,0.723,0.360,0.617,0.577,��,4.2,��
2021/08/18,18:40,0.583,0.861,0.548,1.040,0.724,0.360,0.618,0.578,��,4.4,��
2021/08/18,18:50,0.580,0.857,0.546,1.041,0.726,0.359,0.617,0.577,��,5.5,��
2021/08/18,19:00,0.579,0.861,0.548,1.043,0.725,0.360,0.618,0.578,��쐼,6.5,��
2021/08/18,19:10,0.581,0.861,0.548,1.042,0.726,0.360,0.617,0.577,��쐼,7.6,��
2021/08/18,19:20,0.581,0.861,0.550,1.041,0.724,0.359,0.618,0.578,��쐼,8.1,��
2021/08/18,19:30,0.581,0.860,0.551,1.043,0.726,0.361,0.618,0.579,��쐼,8.7,��
2021/08/18,19:40,0.582,0.860,0.549,1.042,0.725,0.361,0.619,0.578,��쐼,6.6,��
2021/08/18,19:50,0.581,0.863,0.548,1.044,0.725,0.360,0.615,0.577,��,5.1,��
2021/08/18,20:00,0.582,0.862,0.549,1.042,0.725,0.360,0.616,0.579,��,4.4,��
2021/08/18,20:10,0.583,0.861,0.548,1.044,0.725,0.360,0.617,0.578,��쐼,5.8,��
2021/08/18,20:20,0.583,0.864,0.548,1.042,0.725,0.358,0.617,0.579,��쐼,6.7,��
2021/08/18,20:30,0.580,0.862,0.549,1.042,0.727,0.360,0.616,0.577,��쐼,7.5,��
2021/08/18,20:40,0.581,0.863,0.547,1.042,0.726,0.359,0.617,0.578,��쐼,8.0,��
2021/08/18,20:50,0.582,0.860,0.549,1.041,0.726,0.358,0.618,0.578,��쐼,6.9,��
2021/08/18,21:00,0.581,0.859,0.548,1.043,0.727,0.360,0.617,0.577,��쐼,7.1,��
2021/08/18,21:10,0.580,0.862,0.549,1.043,0.726,0.360,0.617,0.579,��,6.1,��
2021/08/18,21:20,0.582,0.864,0.547,1.044,0.727,0.359,0.617,0.578,��쐼,5.7,��
2021/08/18,21:30,0.580,0.862,0.548,1.045,0.728,0.360,0.618,0.579,��쐼,6.0,��
2021/08/18,21:40,0.582,0.863,0.549,1.042,0.728,0.362,0.617,0.578,��쐼,5.0,��
2021/08/18,21:50,0.582,0.866,0.550,1.041,0.727,0.360,0.618,0.578,��쐼,4.7,��
2021/08/18,22:00,0.581,0.863,0.548,1.043,0.728,0.360,0.617,0.580,��,4.6,��
2021/08/18,22:10,0.581,0.864,0.549,1.044,0.727,0.361,0.619,0.578,��,5.8,��
2021/08/18,22:20,0.581,0.864,0.549,1.043,0.727,0.360,0.617,0.578,��,5.8,��
2021/08/18,22:30,0.581,0.861,0.547,1.044,0.728,0.360,0.617,0.579,��,5.8,��
2021/08/18,22:40,0.581,0.863,0.549,1.044,0.729,0.358,0.617,0.579,��,5.2,��
2021/08/18,22:50,0.582,0.864,0.548,1.045,0.730,0.359,0.618,0.579,��,4.7,��
2021/08/18,23:00,0.582,0.866,0.549,1.044,0.729,0.357,0.618,0.578,��,4.7,��
2021/08/18,23:10,0.582,0.864,0.549,1.047,0.727,0.359,0.618,0.581,��,3.7,��
2021/08/18,23:20,0.581,0.863,0.549,1.044,0.729,0.361,0.619,0.579,��,4.5,��
2021/08/18,23:30,0.579,0.862,0.547,1.044,0.727,0.359,0.618,0.579,��,5.3,��
2021/08/18,23:40,0.583,0.864,0.548,1.045,0.728,0.361,0.618,0.579,��,4.4,��
2021/08/18,23:50,0.582,0.864,0.549,1.043,0.728,0.359,0.618,0.581,��,4.5,��
